Time,TemperatureF,DewpointF,PressureIn,WindDirection,WindDirectionDegrees,WindSpeedMPH,WindSpeedGustMPH,Humidity,HourlyPrecipIn,Conditions,Clouds,dailyrainin,SoftwareType,DateUTC
2013-02-19 00:01:00,34.6,29.5,29.26,NNW,338,0.7,2.2,82,0.00,,,0.00,WUHU216HW,2013-02-19 08:01:00,
2013-02-19 00:06:00,34.6,29.5,29.25,NNW,338,0.4,2.0,82,0.00,,,0.00,WUHU216HW,2013-02-19 08:06:00,
2013-02-19 00:11:00,34.6,29.3,29.25,North,0,0.0,1.6,81,0.00,,,0.00,WUHU216HW,2013-02-19 08:11:00,
2013-02-19 00:16:00,34.2,29.2,29.25,NW,315,0.7,2.0,82,0.00,,,0.00,WUHU216HW,2013-02-19 08:16:00,
2013-02-19 00:21:00,34.2,28.9,29.25,West,270,0.0,2.0,81,0.00,,,0.00,WUHU216HW,2013-02-19 08:21:00,
2013-02-19 00:26:00,34.6,29.5,29.25,NW,315,0.4,1.1,82,0.00,,,0.00,WUHU216HW,2013-02-19 08:26:00,
2013-02-19 00:31:00,34.6,29.5,29.25,NW,315,0.0,0.4,82,0.00,,,0.00,WUHU216HW,2013-02-19 08:31:00,
2013-02-19 00:36:00,34.6,29.5,29.25,NNW,338,0.4,0.4,82,0.00,,,0.00,WUHU216HW,2013-02-19 08:36:00,
2013-02-19 00:41:00,34.4,29.3,29.25,NNW,338,0.4,0.4,82,0.00,,,0.00,WUHU216HW,2013-02-19 08:41:00,
2013-02-19 00:46:00,34.2,29.5,29.24,NNW,338,0.4,0.4,83,0.00,,,0.00,WUHU216HW,2013-02-19 08:46:00,
2013-02-19 00:51:00,34.2,29.8,29.24,NNW,338,0.2,0.9,84,0.00,,,0.00,WUHU216HW,2013-02-19 08:51:00,
2013-02-19 00:56:00,34.2,29.5,29.24,NNW,338,0.0,1.1,83,0.00,,,0.00,WUHU216HW,2013-02-19 08:56:00,
2013-02-19 01:01:00,34.2,29.5,29.24,NNW,338,0.0,1.1,83,0.00,,,0.00,WUHU216HW,2013-02-19 09:01:00,
2013-02-19 01:06:00,34.2,29.2,29.24,NNW,338,0.2,0.9,82,0.00,,,0.00,WUHU216HW,2013-02-19 09:06:00,
2013-02-19 01:11:00,34.2,29.5,29.24,NNW,338,0.4,0.9,83,0.00,,,0.00,WUHU216HW,2013-02-19 09:11:00,
2013-02-19 01:16:00,33.8,28.8,29.23,NNW,338,0.2,0.9,82,0.00,,,0.00,WUHU216HW,2013-02-19 09:16:00,
2013-02-19 01:21:00,33.8,28.8,29.23,NNW,338,0.4,0.9,82,0.00,,,0.00,WUHU216HW,2013-02-19 09:21:00,
2013-02-19 01:26:00,33.7,29.0,29.23,NNW,338,0.9,1.3,83,0.00,,,0.00,WUHU216HW,2013-02-19 09:26:00,
2013-02-19 01:31:00,33.5,28.8,29.23,NNW,338,1.1,1.3,83,0.00,,,0.00,WUHU216HW,2013-02-19 09:31:00,
2013-02-19 01:36:00,33.5,28.8,29.23,NNW,338,0.0,1.3,83,0.00,,,0.00,WUHU216HW,2013-02-19 09:36:00,
2013-02-19 01:41:00,33.5,28.8,29.23,NNW,338,0.4,1.6,83,0.00,,,0.00,WUHU216HW,2013-02-19 09:41:00,
2013-02-19 01:46:00,33.5,28.8,29.23,NNW,338,0.4,1.6,83,0.00,,,0.00,WUHU216HW,2013-02-19 09:46:00,
2013-02-19 01:51:00,33.3,28.6,29.23,NNW,338,1.1,1.1,83,0.00,,,0.00,WUHU216HW,2013-02-19 09:51:00,
2013-02-19 01:56:00,33.5,28.8,29.23,NNW,338,0.7,2.0,83,0.00,,,0.00,WUHU216HW,2013-02-19 09:56:00,
2013-02-19 02:01:00,33.5,28.8,29.23,NNW,338,0.0,2.0,83,0.00,,,0.00,WUHU216HW,2013-02-19 10:01:00,
2013-02-19 02:06:00,33.5,28.8,29.23,North,0,0.0,1.8,83,0.00,,,0.00,WUHU216HW,2013-02-19 10:06:00,
2013-02-19 02:11:00,33.8,28.8,29.23,North,0,0.0,0.9,82,0.00,,,0.00,WUHU216HW,2013-02-19 10:11:00,
2013-02-19 02:16:00,33.8,28.8,29.23,North,0,0.0,0.9,82,0.00,,,0.00,WUHU216HW,2013-02-19 10:16:00,
2013-02-19 02:21:00,33.8,28.8,29.22,North,0,0.2,0.7,82,0.00,,,0.00,WUHU216HW,2013-02-19 10:21:00,
2013-02-19 02:26:00,33.8,28.8,29.23,North,0,0.0,0.7,82,0.00,,,0.00,WUHU216HW,2013-02-19 10:26:00,
2013-02-19 02:31:00,33.8,28.8,29.22,NNW,338,0.4,0.7,82,0.00,,,0.00,WUHU216HW,2013-02-19 10:31:00,
2013-02-19 02:36:00,34.0,29.4,29.23,NNW,338,0.0,0.9,83,0.00,,,0.00,WUHU216HW,2013-02-19 10:36:00,
2013-02-19 02:41:00,34.0,29.6,29.22,North,0,0.0,0.9,84,0.00,,,0.00,WUHU216HW,2013-02-19 10:41:00,
2013-02-19 02:46:00,33.8,28.8,29.22,NNW,338,0.7,0.9,82,0.00,,,0.00,WUHU216HW,2013-02-19 10:46:00,
2013-02-19 02:51:00,33.8,29.2,29.22,NNW,338,1.1,1.1,83,0.00,,,0.00,WUHU216HW,2013-02-19 10:51:00,
2013-02-19 02:56:00,33.7,28.7,29.22,NW,315,0.0,1.1,82,0.00,,,0.00,WUHU216HW,2013-02-19 10:56:00,
2013-02-19 03:01:00,33.7,28.7,29.22,NW,315,0.2,1.1,82,0.00,,,0.00,WUHU216HW,2013-02-19 11:01:00,
2013-02-19 03:06:00,33.5,28.8,29.21,North,0,0.4,0.7,83,0.00,,,0.00,WUHU216HW,2013-02-19 11:06:00,
2013-02-19 03:11:00,33.5,28.8,29.21,NW,315,0.4,1.1,83,0.00,,,0.00,WUHU216HW,2013-02-19 11:11:00,
2013-02-19 03:16:00,33.5,29.1,29.22,NNW,338,0.4,1.1,84,0.00,,,0.00,WUHU216HW,2013-02-19 11:16:00,
2013-02-19 03:21:00,33.5,28.8,29.21,NNE,23,0.0,0.7,83,0.00,,,0.00,WUHU216HW,2013-02-19 11:21:00,
2013-02-19 03:26:00,33.5,28.8,29.21,NNE,23,0.0,0.4,83,0.00,,,0.00,WUHU216HW,2013-02-19 11:26:00,
2013-02-19 03:31:00,33.5,28.8,29.21,NNE,23,0.0,0.4,83,0.00,,,0.00,WUHU216HW,2013-02-19 11:31:00,
2013-02-19 03:36:00,33.5,28.8,29.21,SSE,158,0.4,0.4,83,0.00,,,0.00,WUHU216HW,2013-02-19 11:36:00,
2013-02-19 03:41:00,33.5,28.8,29.22,SSE,158,0.0,0.4,83,0.00,,,0.00,WUHU216HW,2013-02-19 11:41:00,
2013-02-19 03:46:00,33.5,29.1,29.22,NW,315,0.4,1.1,84,0.00,,,0.00,WUHU216HW,2013-02-19 11:46:00,
2013-02-19 03:51:00,33.5,28.8,29.22,NW,315,0.2,1.1,83,0.00,,,0.00,WUHU216HW,2013-02-19 11:51:00,
2013-02-19 03:56:00,33.3,29.3,29.22,NNW,338,0.9,0.9,85,0.00,,,0.00,WUHU216HW,2013-02-19 11:56:00,
2013-02-19 04:01:00,33.3,29.3,29.22,NNW,338,0.7,1.1,85,0.00,,,0.00,WUHU216HW,2013-02-19 12:01:00,
2013-02-19 04:06:00,33.1,29.1,29.21,NNW,338,0.4,1.1,85,0.00,,,0.00,WUHU216HW,2013-02-19 12:06:00,
2013-02-19 04:11:00,33.1,29.1,29.21,NNW,338,0.7,1.8,85,0.00,,,0.00,WUHU216HW,2013-02-19 12:11:00,
2013-02-19 04:16:00,33.1,29.1,29.22,NNW,338,0.4,1.8,85,0.00,,,0.00,WUHU216HW,2013-02-19 12:16:00,
2013-02-19 04:21:00,32.9,28.9,29.21,NNW,338,0.7,1.3,85,0.00,,,0.00,WUHU216HW,2013-02-19 12:21:00,
2013-02-19 04:26:00,32.8,28.7,29.22,NNE,23,0.4,1.3,85,0.00,,,0.00,WUHU216HW,2013-02-19 12:26:00,
2013-02-19 04:31:00,32.6,28.3,29.22,NNE,23,0.0,0.9,84,0.00,,,0.00,WUHU216HW,2013-02-19 12:31:00,
2013-02-19 04:36:00,32.4,28.5,29.22,NNE,23,0.0,0.4,85,0.00,,,0.00,WUHU216HW,2013-02-19 12:36:00,
2013-02-19 04:41:00,32.2,28.5,29.22,North,0,0.0,0.4,86,0.00,,,0.00,WUHU216HW,2013-02-19 12:41:00,
2013-02-19 04:46:00,32.0,28.1,29.22,North,0,0.7,0.9,85,0.00,,,0.00,WUHU216HW,2013-02-19 12:46:00,
2013-02-19 04:51:00,32.0,28.1,29.22,NNW,338,1.1,1.1,85,0.00,,,0.00,WUHU216HW,2013-02-19 12:51:00,
2013-02-19 04:56:00,31.7,28.0,29.22,NW,315,1.8,1.8,86,0.00,,,0.00,WUHU216HW,2013-02-19 12:56:00,
2013-02-19 05:01:00,31.3,27.6,29.22,NW,315,1.1,2.0,86,0.00,,,0.00,WUHU216HW,2013-02-19 13:01:00,
2013-02-19 05:06:00,31.3,27.6,29.22,NNW,338,1.1,2.0,86,0.00,,,0.00,WUHU216HW,2013-02-19 13:06:00,
2013-02-19 05:11:00,31.3,27.6,29.22,NNW,338,0.4,1.1,86,0.00,,,0.00,WUHU216HW,2013-02-19 13:11:00,
2013-02-19 05:16:00,31.3,27.9,29.22,NNW,338,1.3,1.6,87,0.00,,,0.00,WUHU216HW,2013-02-19 13:16:00,
2013-02-19 05:21:00,31.5,27.8,29.22,North,0,0.0,1.6,86,0.00,,,0.00,WUHU216HW,2013-02-19 13:21:00,
2013-02-19 05:26:00,31.5,27.8,29.22,SE,135,0.4,1.6,86,0.00,,,0.00,WUHU216HW,2013-02-19 13:26:00,
2013-02-19 05:31:00,31.5,27.8,29.22,SE,135,0.0,0.9,86,0.00,,,0.00,WUHU216HW,2013-02-19 13:31:00,
2013-02-19 05:36:00,31.3,27.6,29.22,North,0,0.0,0.9,86,0.00,,,0.00,WUHU216HW,2013-02-19 13:36:00,
2013-02-19 05:41:00,31.5,27.8,29.23,North,0,0.0,0.9,86,0.00,,,0.00,WUHU216HW,2013-02-19 13:41:00,
2013-02-19 05:46:00,31.3,27.6,29.23,NNW,338,1.1,1.3,86,0.00,,,0.00,WUHU216HW,2013-02-19 13:46:00,
2013-02-19 05:51:00,31.3,27.6,29.23,NNW,338,0.9,1.3,86,0.00,,,0.00,WUHU216HW,2013-02-19 13:51:00,
2013-02-19 05:56:00,31.3,27.9,29.23,NNW,338,1.6,1.8,87,0.00,,,0.00,WUHU216HW,2013-02-19 13:56:00,
2013-02-19 06:01:00,31.3,27.9,29.23,NW,315,1.1,1.8,87,0.00,,,0.00,WUHU216HW,2013-02-19 14:01:00,
2013-02-19 06:06:00,31.5,27.8,29.23,NW,315,0.7,1.8,86,0.00,,,0.00,WUHU216HW,2013-02-19 14:06:00,
2013-02-19 06:11:00,31.3,27.6,29.23,West,270,0.9,1.8,86,0.00,,,0.00,WUHU216HW,2013-02-19 14:11:00,
2013-02-19 06:16:00,31.3,27.6,29.23,NW,315,1.6,1.8,86,0.00,,,0.00,WUHU216HW,2013-02-19 14:16:00,
2013-02-19 06:21:00,31.3,27.9,29.23,NW,315,1.6,2.0,87,0.00,,,0.00,WUHU216HW,2013-02-19 14:21:00,
2013-02-19 06:26:00,31.3,27.6,29.23,North,0,0.0,2.0,86,0.00,,,0.00,WUHU216HW,2013-02-19 14:26:00,
2013-02-19 06:31:00,31.3,27.6,29.23,North,0,0.0,1.6,86,0.00,,,0.00,WUHU216HW,2013-02-19 14:31:00,
2013-02-19 06:36:00,31.1,27.5,29.23,North,0,0.0,0.4,86,0.00,,,0.00,WUHU216HW,2013-02-19 14:36:00,
2013-02-19 06:41:00,31.1,27.5,29.23,North,0,0.0,0.4,86,0.00,,,0.00,WUHU216HW,2013-02-19 14:41:00,
2013-02-19 06:46:00,31.1,27.5,29.23,North,0,0.0,0.4,86,0.00,,,0.00,WUHU216HW,2013-02-19 14:46:00,
2013-02-19 06:51:00,31.3,27.6,29.23,North,0,0.0,0.4,86,0.00,,,0.00,WUHU216HW,2013-02-19 14:51:00,
2013-02-19 06:56:00,31.5,27.8,29.23,North,0,0.0,0.4,86,0.00,,,0.00,WUHU216HW,2013-02-19 14:56:00,
2013-02-19 07:01:00,31.5,27.8,29.23,North,0,0.0,0.4,86,0.00,,,0.00,WUHU216HW,2013-02-19 15:01:00,
2013-02-19 07:06:00,31.5,27.8,29.24,North,0,0.0,0.2,86,0.00,,,0.00,WUHU216HW,2013-02-19 15:06:00,
2013-02-19 07:11:00,31.5,27.8,29.23,North,0,0.0,0.2,86,0.00,,,0.00,WUHU216HW,2013-02-19 15:11:00,
2013-02-19 07:16:00,31.5,27.5,29.24,North,0,0.0,0.0,85,0.00,,,0.00,WUHU216HW,2013-02-19 15:16:00,
2013-02-19 07:21:00,31.7,28.0,29.24,North,0,0.0,0.0,86,0.00,,,0.00,WUHU216HW,2013-02-19 15:21:00,
2013-02-19 07:26:00,31.9,28.2,29.25,North,0,0.0,0.2,86,0.00,,,0.00,WUHU216HW,2013-02-19 15:26:00,
2013-02-19 07:31:00,32.0,28.4,29.25,North,0,0.4,0.4,86,0.00,,,0.00,WUHU216HW,2013-02-19 15:31:00,
2013-02-19 07:36:00,32.0,28.4,29.25,North,0,0.4,0.4,86,0.00,,,0.00,WUHU216HW,2013-02-19 15:36:00,
2013-02-19 07:41:00,32.2,28.5,29.25,North,0,0.0,0.4,86,0.00,,,0.00,WUHU216HW,2013-02-19 15:41:00,
2013-02-19 07:46:00,32.4,28.5,29.25,North,0,0.0,0.4,85,0.00,,,0.00,WUHU216HW,2013-02-19 15:46:00,
2013-02-19 07:51:00,32.6,28.5,29.25,North,0,0.0,0.2,85,0.00,,,0.00,WUHU216HW,2013-02-19 15:51:00,
2013-02-19 07:56:00,32.9,28.9,29.25,North,0,0.0,0.2,85,0.00,,,0.00,WUHU216HW,2013-02-19 15:56:00,
2013-02-19 08:01:00,33.1,29.1,29.26,North,0,0.0,0.2,85,0.00,,,0.00,WUHU216HW,2013-02-19 16:01:00,
2013-02-19 08:06:00,33.3,29.3,29.26,NNW,338,0.0,0.4,85,0.00,,,0.00,WUHU216HW,2013-02-19 16:06:00,
2013-02-19 08:11:00,33.5,29.3,29.26,NNW,338,0.0,0.9,85,0.00,,,0.00,WUHU216HW,2013-02-19 16:11:00,
2013-02-19 08:16:00,33.7,29.3,29.26,NNW,338,0.0,0.9,84,0.00,,,0.00,WUHU216HW,2013-02-19 16:16:00,
2013-02-19 08:21:00,33.8,29.4,29.26,NNW,338,0.0,0.2,84,0.00,,,0.00,WUHU216HW,2013-02-19 16:21:00,
2013-02-19 08:26:00,34.2,29.8,29.26,NNE,23,0.0,0.4,84,0.00,,,0.00,WUHU216HW,2013-02-19 16:26:00,
2013-02-19 08:31:00,34.2,29.8,29.26,NE,45,0.0,0.4,84,0.00,,,0.00,WUHU216HW,2013-02-19 16:31:00,
2013-02-19 08:36:00,34.0,29.6,29.26,East,90,0.4,0.9,84,0.00,,,0.00,WUHU216HW,2013-02-19 16:36:00,
2013-02-19 08:41:00,33.8,29.2,29.26,East,90,0.2,1.1,83,0.00,,,0.00,WUHU216HW,2013-02-19 16:41:00,
2013-02-19 08:46:00,34.0,29.6,29.26,SE,135,0.9,1.8,84,0.00,,,0.00,WUHU216HW,2013-02-19 16:46:00,
2013-02-19 08:51:00,34.2,29.8,29.26,ESE,113,1.1,1.8,84,0.00,,,0.00,WUHU216HW,2013-02-19 16:51:00,
2013-02-19 08:56:00,34.2,29.8,29.26,ESE,113,0.4,1.8,84,0.00,,,0.00,WUHU216HW,2013-02-19 16:56:00,
2013-02-19 09:01:00,34.2,29.8,29.26,ESE,113,0.9,1.8,84,0.00,,,0.00,WUHU216HW,2013-02-19 17:01:00,
2013-02-19 09:06:00,34.4,30.0,29.26,SSE,158,0.0,1.3,84,0.00,,,0.00,WUHU216HW,2013-02-19 17:06:00,
2013-02-19 09:11:00,34.6,30.2,29.27,SE,135,0.4,1.1,84,0.00,,,0.00,WUHU216HW,2013-02-19 17:11:00,
2013-02-19 09:16:00,34.9,30.5,29.27,ESE,113,0.2,1.1,84,0.00,,,0.00,WUHU216HW,2013-02-19 17:16:00,
2013-02-19 09:21:00,35.1,30.7,29.27,SE,135,0.0,1.8,84,0.00,,,0.00,WUHU216HW,2013-02-19 17:21:00,
2013-02-19 09:26:00,35.5,31.1,29.27,SE,135,0.9,1.8,84,0.00,,,0.00,WUHU216HW,2013-02-19 17:26:00,
2013-02-19 09:31:00,35.8,31.2,29.27,East,90,0.4,1.8,83,0.00,,,0.00,WUHU216HW,2013-02-19 17:31:00,
2013-02-19 09:36:00,36.0,31.3,29.27,WSW,248,0.4,1.1,83,0.00,,,0.00,WUHU216HW,2013-02-19 17:36:00,
2013-02-19 09:41:00,36.2,31.5,29.27,SW,225,0.7,1.1,83,0.00,,,0.00,WUHU216HW,2013-02-19 17:41:00,
2013-02-19 09:46:00,36.4,31.3,29.27,SSE,158,0.0,1.1,82,0.00,,,0.00,WUHU216HW,2013-02-19 17:46:00,
2013-02-19 09:51:00,36.7,31.7,29.27,SSE,158,0.0,1.1,82,0.00,,,0.00,WUHU216HW,2013-02-19 17:51:00,
2013-02-19 09:56:00,37.1,32.0,29.27,SSE,158,0.0,0.4,82,0.00,,,0.00,WUHU216HW,2013-02-19 17:56:00,
2013-02-19 10:01:00,37.4,31.9,29.27,South,180,0.2,1.8,80,0.00,,,0.00,WUHU216HW,2013-02-19 18:01:00,
2013-02-19 10:06:00,37.4,31.9,29.27,SW,225,0.9,1.8,80,0.00,,,0.00,WUHU216HW,2013-02-19 18:06:00,
2013-02-19 10:11:00,37.6,32.0,29.27,ESE,113,1.1,1.8,80,0.00,,,0.00,WUHU216HW,2013-02-19 18:11:00,
2013-02-19 10:16:00,37.8,32.2,29.27,SSE,158,0.9,2.0,80,0.00,,,0.00,WUHU216HW,2013-02-19 18:16:00,
2013-02-19 10:21:00,38.5,32.6,29.27,East,90,1.1,2.0,79,0.00,,,0.00,WUHU216HW,2013-02-19 18:21:00,
2013-02-19 10:26:00,39.2,33.3,29.27,SSE,158,0.7,2.5,79,0.00,,,0.00,WUHU216HW,2013-02-19 18:26:00,
2013-02-19 10:31:00,40.0,33.3,29.27,East,90,0.4,2.5,77,0.00,,,0.00,WUHU216HW,2013-02-19 18:31:00,
2013-02-19 10:36:00,41.0,34.3,29.27,SSW,203,0.2,4.0,77,0.00,,,0.00,WUHU216HW,2013-02-19 18:36:00,
2013-02-19 10:41:00,42.1,33.8,29.27,SSE,158,0.9,4.0,72,0.00,,,0.00,WUHU216HW,2013-02-19 18:41:00,
2013-02-19 10:46:00,42.3,33.3,29.27,SSW,203,1.8,2.2,70,0.00,,,0.00,WUHU216HW,2013-02-19 18:46:00,
2013-02-19 10:51:00,42.1,33.5,29.27,SSE,158,1.6,2.5,71,0.00,,,0.00,WUHU216HW,2013-02-19 18:51:00,
2013-02-19 10:56:00,42.8,34.2,29.27,ESE,113,1.1,2.7,71,0.00,,,0.00,WUHU216HW,2013-02-19 18:56:00,
2013-02-19 11:01:00,43.0,34.0,29.27,South,180,2.5,4.0,70,0.00,,,0.00,WUHU216HW,2013-02-19 19:01:00,
2013-02-19 11:06:00,43.7,33.8,29.27,ESE,113,0.7,4.0,68,0.00,,,0.00,WUHU216HW,2013-02-19 19:06:00,
2013-02-19 11:11:00,43.7,33.5,29.27,ESE,113,0.9,3.6,67,0.00,,,0.00,WUHU216HW,2013-02-19 19:11:00,
2013-02-19 11:16:00,44.1,35.3,29.27,SE,135,0.2,2.2,71,0.00,,,0.00,WUHU216HW,2013-02-19 19:16:00,
2013-02-19 11:21:00,45.0,35.1,29.27,SSE,158,1.1,5.4,68,0.00,,,0.00,WUHU216HW,2013-02-19 19:21:00,
2013-02-19 11:26:00,45.0,33.6,29.27,SE,135,6.3,6.3,64,0.00,,,0.00,WUHU216HW,2013-02-19 19:26:00,
2013-02-19 11:31:00,44.8,34.1,29.26,SE,135,2.0,6.3,66,0.00,,,0.00,WUHU216HW,2013-02-19 19:31:00,
2013-02-19 11:36:00,45.7,34.6,29.27,SE,135,2.2,6.3,65,0.00,,,0.00,WUHU216HW,2013-02-19 19:36:00,
2013-02-19 11:41:00,45.7,35.0,29.27,SSE,158,2.5,4.7,66,0.00,,,0.00,WUHU216HW,2013-02-19 19:41:00,
2013-02-19 11:46:00,46.1,33.8,29.27,SE,135,3.6,6.7,62,0.00,,,0.00,WUHU216HW,2013-02-19 19:46:00,
2013-02-19 11:51:00,46.1,33.4,29.26,SE,135,6.3,7.6,61,0.00,,,0.00,WUHU216HW,2013-02-19 19:51:00,
2013-02-19 11:56:00,45.9,33.6,29.26,ENE,68,2.9,7.8,62,0.00,,,0.00,WUHU216HW,2013-02-19 19:56:00,
2013-02-19 12:01:00,46.4,34.5,29.26,ESE,113,1.3,7.8,63,0.00,,,0.00,WUHU216HW,2013-02-19 20:01:00,
2013-02-19 12:06:00,47.0,34.2,29.26,ESE,113,4.7,7.2,61,0.00,,,0.00,WUHU216HW,2013-02-19 20:06:00,
2013-02-19 12:11:00,47.2,35.2,29.26,ESE,113,2.2,5.4,63,0.00,,,0.00,WUHU216HW,2013-02-19 20:11:00,
2013-02-19 12:16:00,48.1,35.6,29.26,SE,135,2.5,5.4,62,0.00,,,0.00,WUHU216HW,2013-02-19 20:16:00,
2013-02-19 12:21:00,49.0,35.7,29.26,SE,135,4.5,5.8,60,0.00,,,0.00,WUHU216HW,2013-02-19 20:21:00,
2013-02-19 12:26:00,49.3,35.7,29.26,SE,135,4.7,5.8,59,0.00,,,0.00,WUHU216HW,2013-02-19 20:26:00,
2013-02-19 12:31:00,49.3,35.7,29.26,SSE,158,2.5,4.7,59,0.00,,,0.00,WUHU216HW,2013-02-19 20:31:00,
2013-02-19 12:36:00,49.9,36.5,29.26,ESE,113,1.3,4.9,60,0.00,,,0.00,WUHU216HW,2013-02-19 20:36:00,
2013-02-19 12:41:00,50.0,36.3,29.26,ESE,113,2.5,4.9,59,0.00,,,0.00,WUHU216HW,2013-02-19 20:41:00,
2013-02-19 12:46:00,49.7,35.9,29.26,SSE,158,1.6,5.4,59,0.00,,,0.00,WUHU216HW,2013-02-19 20:46:00,
2013-02-19 12:51:00,50.2,36.0,29.26,East,90,2.7,5.4,58,0.00,,,0.00,WUHU216HW,2013-02-19 20:51:00,
2013-02-19 12:56:00,50.0,35.4,29.26,ESE,113,2.7,3.6,57,0.00,,,0.00,WUHU216HW,2013-02-19 20:56:00,
2013-02-19 13:01:00,50.6,35.8,29.26,ESE,113,2.5,3.8,57,0.00,,,0.00,WUHU216HW,2013-02-19 21:01:00,
2013-02-19 13:06:00,50.8,36.0,29.26,SE,135,1.1,5.4,57,0.00,,,0.00,WUHU216HW,2013-02-19 21:06:00,
2013-02-19 13:11:00,50.8,35.6,29.26,SE,135,3.4,6.7,56,0.00,,,0.00,WUHU216HW,2013-02-19 21:11:00,
2013-02-19 13:16:00,50.8,35.6,29.26,ENE,68,2.5,6.7,56,0.00,,,0.00,WUHU216HW,2013-02-19 21:16:00,
2013-02-19 13:21:00,50.8,34.7,29.26,NNE,23,3.1,4.7,54,0.00,,,0.00,WUHU216HW,2013-02-19 21:21:00,
2013-02-19 13:26:00,50.9,35.3,29.26,North,0,1.8,5.1,55,0.00,,,0.00,WUHU216HW,2013-02-19 21:26:00,
2013-02-19 13:31:00,51.1,34.6,29.26,ENE,68,4.7,5.6,53,0.00,,,0.00,WUHU216HW,2013-02-19 21:31:00,
2013-02-19 13:36:00,51.3,35.2,29.25,ENE,68,4.0,5.6,54,0.00,,,0.00,WUHU216HW,2013-02-19 21:36:00,
2013-02-19 13:41:00,50.9,34.8,29.26,ESE,113,3.4,5.4,54,0.00,,,0.00,WUHU216HW,2013-02-19 21:41:00,
2013-02-19 13:46:00,51.3,34.8,29.26,SSE,158,5.6,5.6,53,0.00,,,0.00,WUHU216HW,2013-02-19 21:46:00,
2013-02-19 13:51:00,51.1,34.1,29.25,ESE,113,3.4,7.6,52,0.00,,,0.00,WUHU216HW,2013-02-19 21:51:00,
2013-02-19 13:56:00,51.1,35.0,29.26,ESE,113,2.7,7.6,54,0.00,,,0.00,WUHU216HW,2013-02-19 21:56:00,
2013-02-19 14:01:00,51.3,35.2,29.26,ESE,113,4.0,6.3,54,0.00,,,0.00,WUHU216HW,2013-02-19 22:01:00,
2013-02-19 14:06:00,51.1,34.6,29.26,ESE,113,6.0,6.3,53,0.00,,,0.00,WUHU216HW,2013-02-19 22:06:00,
2013-02-19 14:11:00,51.1,34.6,29.26,ENE,68,2.2,7.8,53,0.00,,,0.00,WUHU216HW,2013-02-19 22:11:00,
2013-02-19 14:16:00,51.1,33.7,29.26,SE,135,3.8,7.8,51,0.00,,,0.00,WUHU216HW,2013-02-19 22:16:00,
2013-02-19 14:21:00,51.5,33.5,29.25,ESE,113,4.7,4.7,50,0.00,,,0.00,WUHU216HW,2013-02-19 22:21:00,
2013-02-19 14:26:00,51.7,34.1,29.25,ESE,113,1.8,4.7,51,0.00,,,0.00,WUHU216HW,2013-02-19 22:26:00,
2013-02-19 14:31:00,52.2,33.6,29.25,ENE,68,2.5,4.7,49,0.00,,,0.00,WUHU216HW,2013-02-19 22:31:00,
2013-02-19 14:36:00,52.0,34.0,29.25,ESE,113,0.4,4.3,50,0.00,,,0.00,WUHU216HW,2013-02-19 22:36:00,
2013-02-19 14:41:00,52.4,34.3,29.26,East,90,1.8,4.7,50,0.00,,,0.00,WUHU216HW,2013-02-19 22:41:00,
2013-02-19 14:46:00,52.6,33.4,29.26,ESE,113,1.8,5.4,48,0.00,,,0.00,WUHU216HW,2013-02-19 22:46:00,
2013-02-19 14:51:00,52.2,33.0,29.26,East,90,1.8,5.4,48,0.00,,,0.00,WUHU216HW,2013-02-19 22:51:00,
2013-02-19 14:56:00,52.2,33.0,29.26,SE,135,2.7,4.5,48,0.00,,,0.00,WUHU216HW,2013-02-19 22:56:00,
2013-02-19 15:01:00,52.4,33.2,29.26,ESE,113,4.0,5.1,48,0.00,,,0.00,WUHU216HW,2013-02-19 23:01:00,
2013-02-19 15:06:00,52.6,32.2,29.26,SE,135,4.7,5.1,46,0.00,,,0.00,WUHU216HW,2013-02-19 23:06:00,
2013-02-19 15:11:00,52.6,32.9,29.26,ESE,113,3.4,4.7,47,0.00,,,0.00,WUHU216HW,2013-02-19 23:11:00,
2013-02-19 15:16:00,52.7,31.3,29.26,ESE,113,2.2,4.7,44,0.00,,,0.00,WUHU216HW,2013-02-19 23:16:00,
2013-02-19 15:21:00,52.7,31.3,29.26,SE,135,2.5,3.4,44,0.00,,,0.00,WUHU216HW,2013-02-19 23:21:00,
2013-02-19 15:26:00,52.9,33.7,29.26,SE,135,1.8,3.4,48,0.00,,,0.00,WUHU216HW,2013-02-19 23:26:00,
2013-02-19 15:31:00,52.6,32.2,29.26,ESE,113,2.5,4.7,46,0.00,,,0.00,WUHU216HW,2013-02-19 23:31:00,
2013-02-19 15:36:00,52.2,31.4,29.26,East,90,3.4,4.7,45,0.00,,,0.00,WUHU216HW,2013-02-19 23:36:00,
2013-02-19 15:41:00,52.2,32.5,29.26,East,90,2.5,4.7,47,0.00,,,0.00,WUHU216HW,2013-02-19 23:41:00,
2013-02-19 15:46:00,52.0,32.9,29.26,ESE,113,2.2,3.4,48,0.00,,,0.00,WUHU216HW,2013-02-19 23:46:00,
2013-02-19 15:51:00,51.8,32.1,29.26,ESE,113,3.1,3.1,47,0.00,,,0.00,WUHU216HW,2013-02-19 23:51:00,
2013-02-19 15:56:00,52.0,33.5,29.26,East,90,0.4,3.6,49,0.00,,,0.00,WUHU216HW,2013-02-19 23:56:00,
2013-02-19 16:01:00,51.8,31.6,29.26,ESE,113,2.5,3.6,46,0.00,,,0.00,WUHU216HW,2013-02-20 00:01:00,
2013-02-19 16:06:00,52.0,32.3,29.26,SE,135,0.2,2.5,47,0.00,,,0.00,WUHU216HW,2013-02-20 00:06:00,
2013-02-19 16:11:00,52.2,33.6,29.26,SE,135,0.9,2.7,49,0.00,,,0.00,WUHU216HW,2013-02-20 00:11:00,
2013-02-19 16:16:00,52.2,33.0,29.26,East,90,0.4,2.7,48,0.00,,,0.00,WUHU216HW,2013-02-20 00:16:00,
2013-02-19 16:21:00,52.2,31.4,29.26,ENE,68,1.6,1.8,45,0.00,,,0.00,WUHU216HW,2013-02-20 00:21:00,
2013-02-19 16:26:00,52.0,32.9,29.27,SE,135,0.9,1.8,48,0.00,,,0.00,WUHU216HW,2013-02-20 00:26:00,
2013-02-19 16:31:00,51.8,33.3,29.26,East,90,0.0,1.8,49,0.00,,,0.00,WUHU216HW,2013-02-20 00:31:00,
2013-02-19 16:36:00,51.7,33.7,29.27,SE,135,0.4,1.8,50,0.00,,,0.00,WUHU216HW,2013-02-20 00:36:00,
2013-02-19 16:41:00,51.5,33.5,29.27,SE,135,0.4,0.7,50,0.00,,,0.00,WUHU216HW,2013-02-20 00:41:00,
2013-02-19 16:46:00,51.3,33.9,29.27,SE,135,0.0,0.7,51,0.00,,,0.00,WUHU216HW,2013-02-20 00:46:00,
2013-02-19 16:51:00,51.1,34.1,29.27,SE,135,0.0,0.7,52,0.00,,,0.00,WUHU216HW,2013-02-20 00:51:00,
2013-02-19 16:56:00,50.9,33.9,29.28,SE,135,0.0,1.1,52,0.00,,,0.00,WUHU216HW,2013-02-20 00:56:00,
2013-02-19 17:01:00,50.8,34.2,29.28,NNE,23,0.2,1.1,53,0.00,,,0.00,WUHU216HW,2013-02-20 01:01:00,
2013-02-19 17:06:00,50.6,34.0,29.28,NNE,23,0.0,0.2,53,0.00,,,0.00,WUHU216HW,2013-02-20 01:06:00,
2013-02-19 17:11:00,50.6,34.0,29.28,NNW,338,0.9,0.9,53,0.00,,,0.00,WUHU216HW,2013-02-20 01:11:00,
2013-02-19 17:16:00,50.4,34.4,29.28,NNW,338,0.0,0.9,54,0.00,,,0.00,WUHU216HW,2013-02-20 01:16:00,
2013-02-19 17:21:00,50.2,33.8,29.29,NW,315,6.0,6.0,53,0.00,,,0.00,WUHU216HW,2013-02-20 01:21:00,
2013-02-19 17:26:00,49.5,33.0,29.29,NNW,338,2.5,6.0,53,0.00,,,0.00,WUHU216HW,2013-02-20 01:26:00,
2013-02-19 17:31:00,49.1,32.7,29.29,NNW,338,1.1,6.0,53,0.00,,,0.00,WUHU216HW,2013-02-20 01:31:00,
2013-02-19 17:36:00,48.8,32.3,29.29,NW,315,1.3,3.6,53,0.00,,,0.00,WUHU216HW,2013-02-20 01:36:00,
2013-02-19 17:41:00,48.8,32.9,29.30,NW,315,1.8,3.1,54,0.00,,,0.00,WUHU216HW,2013-02-20 01:41:00,
2013-02-19 17:46:00,48.6,32.7,29.29,NNW,338,0.0,3.1,54,0.00,,,0.00,WUHU216HW,2013-02-20 01:46:00,
2013-02-19 17:51:00,48.2,32.8,29.30,NNW,338,0.2,3.1,55,0.00,,,0.00,WUHU216HW,2013-02-20 01:51:00,
2013-02-19 17:56:00,47.9,32.9,29.30,North,0,0.7,2.0,56,0.00,,,0.00,WUHU216HW,2013-02-20 01:56:00,
2013-02-19 18:01:00,47.5,32.6,29.30,WSW,248,0.9,2.2,56,0.00,,,0.00,WUHU216HW,2013-02-20 02:01:00,
2013-02-19 18:06:00,47.3,32.9,29.30,NNW,338,0.7,2.2,57,0.00,,,0.00,WUHU216HW,2013-02-20 02:06:00,
2013-02-19 18:11:00,47.2,33.1,29.30,NNW,338,0.0,0.9,58,0.00,,,0.00,WUHU216HW,2013-02-20 02:11:00,
2013-02-19 18:16:00,46.8,33.2,29.30,NNW,338,0.4,0.7,59,0.00,,,0.00,WUHU216HW,2013-02-20 02:16:00,
2013-02-19 18:21:00,46.4,32.9,29.31,NNW,338,0.0,1.1,59,0.00,,,0.00,WUHU216HW,2013-02-20 02:21:00,
2013-02-19 18:26:00,46.3,33.6,29.31,NNW,338,1.3,1.8,61,0.00,,,0.00,WUHU216HW,2013-02-20 02:26:00,
2013-02-19 18:31:00,45.7,33.9,29.31,NNW,338,0.9,1.8,63,0.00,,,0.00,WUHU216HW,2013-02-20 02:31:00,
2013-02-19 18:36:00,45.4,33.5,29.31,NNW,338,0.9,2.0,63,0.00,,,0.00,WUHU216HW,2013-02-20 02:36:00,
2013-02-19 18:41:00,45.2,33.3,29.31,ENE,68,0.0,2.5,63,0.00,,,0.00,WUHU216HW,2013-02-20 02:41:00,
2013-02-19 18:46:00,45.2,33.7,29.32,North,0,0.4,2.5,64,0.00,,,0.00,WUHU216HW,2013-02-20 02:46:00,
2013-02-19 18:51:00,45.0,33.9,29.32,NNW,338,0.4,1.3,65,0.00,,,0.00,WUHU216HW,2013-02-20 02:51:00,
2013-02-19 18:56:00,44.8,33.8,29.32,North,0,0.9,4.0,65,0.00,,,0.00,WUHU216HW,2013-02-20 02:56:00,
2013-02-19 19:01:00,44.5,33.8,29.32,North,0,0.7,4.0,66,0.00,,,0.00,WUHU216HW,2013-02-20 03:01:00,
2013-02-19 19:06:00,44.1,33.9,29.33,North,0,0.0,1.1,67,0.00,,,0.00,WUHU216HW,2013-02-20 03:06:00,
2013-02-19 19:11:00,43.4,33.6,29.33,NNW,338,0.2,1.1,68,0.00,,,0.00,WUHU216HW,2013-02-20 03:11:00,
2013-02-19 19:16:00,42.5,33.5,29.33,North,0,1.1,1.6,70,0.00,,,0.00,WUHU216HW,2013-02-20 03:16:00,
2013-02-19 19:21:00,42.1,33.1,29.33,NNW,338,2.5,3.4,70,0.00,,,0.00,WUHU216HW,2013-02-20 03:21:00,
2013-02-19 19:26:00,41.8,33.1,29.33,NNW,338,1.8,3.4,71,0.00,,,0.00,WUHU216HW,2013-02-20 03:26:00,
2013-02-19 19:31:00,41.4,32.8,29.33,NNW,338,2.0,2.7,71,0.00,,,0.00,WUHU216HW,2013-02-20 03:31:00,
2013-02-19 19:36:00,41.0,32.4,29.33,NNW,338,1.8,3.8,71,0.00,,,0.00,WUHU216HW,2013-02-20 03:36:00,
2013-02-19 19:41:00,40.9,32.2,29.34,NNW,338,2.5,3.8,71,0.00,,,0.00,WUHU216HW,2013-02-20 03:41:00,
2013-02-19 19:46:00,40.7,32.3,29.34,North,0,1.3,3.8,72,0.00,,,0.00,WUHU216HW,2013-02-20 03:46:00,
2013-02-19 19:51:00,40.5,32.1,29.34,NNW,338,1.8,3.8,72,0.00,,,0.00,WUHU216HW,2013-02-20 03:51:00,
2013-02-19 19:56:00,40.1,32.1,29.34,NW,315,2.5,5.4,73,0.00,,,0.00,WUHU216HW,2013-02-20 03:56:00,
2013-02-19 20:01:00,40.1,32.1,29.35,NNW,338,3.1,5.4,73,0.00,,,0.00,WUHU216HW,2013-02-20 04:01:00,
2013-02-19 20:06:00,40.1,32.5,29.35,NNW,338,1.3,4.3,74,0.00,,,0.00,WUHU216HW,2013-02-20 04:06:00,
2013-02-19 20:11:00,40.0,32.0,29.36,NNW,338,1.3,4.0,73,0.00,,,0.00,WUHU216HW,2013-02-20 04:11:00,
2013-02-19 20:16:00,40.0,32.3,29.36,NW,315,2.0,3.1,74,0.00,,,0.00,WUHU216HW,2013-02-20 04:16:00,
2013-02-19 20:21:00,39.6,32.3,29.36,North,0,0.7,3.8,75,0.00,,,0.00,WUHU216HW,2013-02-20 04:21:00,
2013-02-19 20:26:00,39.6,32.3,29.37,North,0,1.1,3.8,75,0.00,,,0.00,WUHU216HW,2013-02-20 04:26:00,
2013-02-19 20:31:00,39.6,32.7,29.37,North,0,0.4,2.9,76,0.00,,,0.00,WUHU216HW,2013-02-20 04:31:00,
2013-02-19 20:36:00,39.4,32.5,29.37,NNW,338,1.1,2.9,76,0.00,,,0.00,WUHU216HW,2013-02-20 04:36:00,
2013-02-19 20:41:00,39.1,32.5,29.37,North,0,1.1,1.8,77,0.00,,,0.00,WUHU216HW,2013-02-20 04:41:00,
2013-02-19 20:46:00,38.7,32.1,29.37,NNW,338,1.3,2.5,77,0.00,,,0.00,WUHU216HW,2013-02-20 04:46:00,
2013-02-19 20:51:00,38.7,32.5,29.37,NNW,338,1.1,2.5,78,0.00,,,0.00,WUHU216HW,2013-02-20 04:51:00,
2013-02-19 20:56:00,38.5,32.0,29.37,NNW,338,0.7,2.5,77,0.00,,,0.00,WUHU216HW,2013-02-20 04:56:00,
2013-02-19 21:00:00,38.5,32.0,29.37,North,0,1.1,2.5,77,0.00,,,0.00,WUHU216HW,2013-02-20 05:00:00,
2013-02-19 21:05:00,38.5,32.6,29.38,NNW,338,1.6,2.7,79,0.00,,,0.00,WUHU216HW,2013-02-20 05:05:00,
2013-02-19 21:10:00,38.5,32.3,29.38,North,0,0.4,2.7,78,0.00,,,0.00,WUHU216HW,2013-02-20 05:10:00,
2013-02-19 21:15:00,38.2,31.6,29.38,NNW,338,0.2,2.5,77,0.00,,,0.00,WUHU216HW,2013-02-20 05:15:00,
2013-02-19 21:20:00,37.8,31.6,29.38,NNW,338,1.1,2.2,78,0.00,,,0.00,WUHU216HW,2013-02-20 05:20:00,
2013-02-19 21:25:00,37.4,31.2,29.38,NNW,338,0.4,2.2,78,0.00,,,0.00,WUHU216HW,2013-02-20 05:25:00,
2013-02-19 21:30:00,37.3,31.1,29.39,NNW,338,1.3,1.6,78,0.00,,,0.00,WUHU216HW,2013-02-20 05:30:00,
2013-02-19 21:35:00,36.9,31.0,29.39,NNW,338,0.9,1.8,79,0.00,,,0.00,WUHU216HW,2013-02-20 05:35:00,
2013-02-19 21:40:00,36.7,30.8,29.39,NNW,338,0.7,1.8,79,0.00,,,0.00,WUHU216HW,2013-02-20 05:40:00,
2013-02-19 21:45:00,36.7,30.8,29.39,NNW,338,1.1,1.8,79,0.00,,,0.00,WUHU216HW,2013-02-20 05:45:00,
2013-02-19 21:50:00,36.5,31.0,29.40,NNW,338,1.3,1.6,80,0.00,,,0.00,WUHU216HW,2013-02-20 05:50:00,
2013-02-19 21:55:00,36.4,30.8,29.40,NNW,338,0.9,2.5,80,0.00,,,0.00,WUHU216HW,2013-02-20 05:55:00,
2013-02-19 22:00:00,36.0,30.4,29.40,NNW,338,1.1,2.5,80,0.00,,,0.00,WUHU216HW,2013-02-20 06:00:00,
2013-02-19 22:05:00,36.0,30.7,29.40,NNW,338,1.3,2.0,81,0.00,,,0.00,WUHU216HW,2013-02-20 06:05:00,
2013-02-19 22:10:00,36.0,30.7,29.40,NW,315,1.1,2.0,81,0.00,,,0.00,WUHU216HW,2013-02-20 06:10:00,
2013-02-19 22:15:00,35.8,30.5,29.41,NNW,338,1.1,1.8,81,0.00,,,0.00,WUHU216HW,2013-02-20 06:15:00,
2013-02-19 22:20:00,35.6,30.3,29.41,NNW,338,0.9,1.8,81,0.00,,,0.00,WUHU216HW,2013-02-20 06:20:00,
2013-02-19 22:25:00,35.6,30.6,29.41,NNW,338,0.7,1.6,82,0.00,,,0.00,WUHU216HW,2013-02-20 06:25:00,
2013-02-19 22:30:00,35.5,30.4,29.41,NNW,338,1.8,1.8,82,0.00,,,0.00,WUHU216HW,2013-02-20 06:30:00,
2013-02-19 22:35:00,35.3,30.2,29.41,NNW,338,1.6,2.5,82,0.00,,,0.00,WUHU216HW,2013-02-20 06:35:00,
2013-02-19 22:40:00,35.3,30.2,29.41,NNW,338,1.1,2.5,82,0.00,,,0.00,WUHU216HW,2013-02-20 06:40:00,
2013-02-19 22:45:00,35.1,30.1,29.42,NNW,338,1.3,2.0,82,0.00,,,0.00,WUHU216HW,2013-02-20 06:45:00,
2013-02-19 22:50:00,34.9,30.3,29.42,NNW,338,1.6,1.8,83,0.00,,,0.00,WUHU216HW,2013-02-20 06:50:00,
2013-02-19 22:55:00,34.9,30.3,29.42,NNW,338,1.8,3.4,83,0.00,,,0.00,WUHU216HW,2013-02-20 06:55:00,
2013-02-19 23:00:00,34.9,30.5,29.42,NNW,338,1.8,3.4,84,0.00,,,0.00,WUHU216HW,2013-02-20 07:00:00,
2013-02-19 23:05:00,34.9,30.3,29.43,NNW,338,1.3,2.5,83,0.00,,,0.00,WUHU216HW,2013-02-20 07:05:00,
2013-02-19 23:10:00,34.7,30.3,29.43,NNW,338,1.6,3.4,84,0.00,,,0.00,WUHU216HW,2013-02-20 07:10:00,
2013-02-19 23:15:00,34.6,30.2,29.43,NW,315,1.8,3.4,84,0.00,,,0.00,WUHU216HW,2013-02-20 07:15:00,
2013-02-19 23:20:00,34.6,30.2,29.43,NNW,338,1.3,3.1,84,0.00,,,0.00,WUHU216HW,2013-02-20 07:20:00,
2013-02-19 23:25:00,34.6,30.2,29.44,NNW,338,2.0,2.5,84,0.00,,,0.00,WUHU216HW,2013-02-20 07:25:00,
2013-02-19 23:30:00,34.4,30.0,29.44,NNW,338,1.1,2.5,84,0.00,,,0.00,WUHU216HW,2013-02-20 07:30:00,
2013-02-19 23:35:00,34.4,30.0,29.44,NW,315,2.0,2.9,84,0.00,,,0.00,WUHU216HW,2013-02-20 07:35:00,
2013-02-19 23:40:00,34.4,30.0,29.44,NNW,338,1.1,2.9,84,0.00,,,0.00,WUHU216HW,2013-02-20 07:40:00,
2013-02-19 23:45:00,34.2,29.8,29.44,NW,315,2.0,2.0,84,0.00,,,0.00,WUHU216HW,2013-02-20 07:45:00,
2013-02-19 23:50:00,34.2,29.8,29.44,NW,315,2.7,2.7,84,0.00,,,0.00,WUHU216HW,2013-02-20 07:50:00,
2013-02-19 23:55:00,34.0,29.6,29.44,NNW,338,2.5,2.7,84,0.00,,,0.00,WUHU216HW,2013-02-20 07:55:00,